When you browse on this site, cookies collect data to enhance your experience and personalize the content and advertising you see.
Visit our Privacy Policy to learn more. By continuing to use the site, you agree to this use of cookies and data.
EN

Hourly Weather Goetzenbruck

Today, 23 September, Wednesday

Time Temperature Precipitation Wind Pressure Humidity
00:00 +14°C° 0 mm 2 mps 729 mmHg 77%
01:00 +14°C° 0 mm 2 mps 729 mmHg 78%
02:00 +13°C° 0 mm 2 mps 729 mmHg 79%
03:00 +13°C° 0 mm 2 mps 729 mmHg 80%
04:00 +13°C° 0 mm 2 mps 729 mmHg 82%
05:00 +13°C° 0 mm 2 mps 729 mmHg 85%
06:00 +13°C° 0 mm 2 mps 730 mmHg 90%
07:00 +14°C° 0 mm 3 mps 730 mmHg 83%
08:00 +17°C° 0 mm 3 mps 730 mmHg 76%
09:00 +19°C° 0 mm 3 mps 730 mmHg 70%
10:00 +20°C° 0 mm 4 mps 730 mmHg 65%
11:00 +21°C° 0 mm 4 mps 730 mmHg 60%
12:00 +22°C° 0 mm 4 mps 729 mmHg 55%
13:00 +22°C° 0.4 mm 4 mps 729 mmHg 59%
14:00 +22°C° 0.4 mm 4 mps 728 mmHg 63%
15:00 +21°C° 0.4 mm 3 mps 728 mmHg 67%
16:00 +19°C° 0.1 mm 3 mps 728 mmHg 74%
17:00 +18°C° 0.1 mm 3 mps 728 mmHg 81%
18:00 +16°C° 0.1 mm 2 mps 728 mmHg 87%
19:00 +16°C° 0 mm 2 mps 728 mmHg 87%
20:00 +16°C° 0 mm 2 mps 727 mmHg 87%
21:00 +15°C° 0 mm 2 mps 727 mmHg 86%
22:00 +15°C° 0.2 mm 2 mps 727 mmHg 87%
23:00 +14°C° 0.2 mm 3 mps 727 mmHg 88%

Tomorrow, 24 September, Thursday

Time Temperature Precipitation Wind Pressure Humidity
00:00 +14°C° 0.2 mm 3 mps 727 mmHg 89%
01:00 +14°C° 0.2 mm 4 mps 727 mmHg 89%
02:00 +14°C° 0.2 mm 4 mps 727 mmHg 90%
03:00 +14°C° 0.2 mm 5 mps 727 mmHg 91%
04:00 +14°C° 0.1 mm 5 mps 728 mmHg 91%
05:00 +13°C° 0.1 mm 5 mps 728 mmHg 91%
06:00 +13°C° 0.1 mm 4 mps 729 mmHg 91%
07:00 +14°C° 0 mm 5 mps 729 mmHg 83%
08:00 +14°C° 0 mm 5 mps 729 mmHg 75%
09:00 +15°C° 0 mm 6 mps 729 mmHg 68%
10:00 +16°C° 0 mm 6 mps 729 mmHg 63%
11:00 +17°C° 0 mm 6 mps 729 mmHg 59%
12:00 +19°C° 0 mm 5 mps 728 mmHg 55%
13:00 +19°C° 0.1 mm 5 mps 728 mmHg 57%
14:00 +19°C° 0.1 mm 5 mps 727 mmHg 60%
15:00 +19°C° 0.1 mm 4 mps 727 mmHg 62%
16:00 +18°C° 0.1 mm 4 mps 726 mmHg 67%
17:00 +17°C° 0.1 mm 3 mps 726 mmHg 72%
18:00 +16°C° 0.1 mm 3 mps 725 mmHg 77%
19:00 +14°C° 0.2 mm 4 mps 725 mmHg 80%
20:00 +14°C° 0.2 mm 4 mps 725 mmHg 83%
21:00 +13°C° 0.2 mm 5 mps 725 mmHg 86%
22:00 +12°C° 0.5 mm 5 mps 725 mmHg 87%
23:00 +12°C° 0.5 mm 5 mps 725 mmHg 87%

Day after tomorrow, 25 September, Friday

Time Temperature Precipitation Wind Pressure Humidity
00:00 +10°C° 0.5 mm 6 mps 725 mmHg 88%
01:00 +9°C° 0 mm 5 mps 725 mmHg 88%
02:00 +7°C° 0 mm 5 mps 725 mmHg 88%
03:00 +6°C° 0 mm 4 mps 725 mmHg 88%
04:00 +6°C° 0 mm 4 mps 725 mmHg 87%
05:00 +6°C° 0 mm 5 mps 725 mmHg 86%
06:00 +6°C° 0 mm 5 mps 725 mmHg 85%
07:00 +6°C° 0 mm 5 mps 725 mmHg 81%
08:00 +7°C° 0 mm 6 mps 725 mmHg 77%
09:00 +8°C° 0 mm 7 mps 726 mmHg 73%
10:00 +8°C° 0.3 mm 6 mps 726 mmHg 74%
11:00 +9°C° 0.3 mm 5 mps 726 mmHg 74%
12:00 +10°C° 0.3 mm 4 mps 726 mmHg 74%
13:00 +11°C° 0.5 mm 4 mps 726 mmHg 73%
14:00 +11°C° 0.5 mm 4 mps 726 mmHg 72%
15:00 +12°C° 0.5 mm 4 mps 726 mmHg 70%
16:00 +10°C° 0.1 mm 4 mps 726 mmHg 75%
17:00 +8°C° 0.1 mm 4 mps 727 mmHg 80%
18:00 +7°C° 0.1 mm 4 mps 727 mmHg 85%
19:00 +7°C° 0 mm 4 mps 727 mmHg 86%
20:00 +7°C° 0 mm 5 mps 728 mmHg 87%
21:00 +6°C° 0 mm 5 mps 728 mmHg 89%
22:00 +7°C° 0 mm 5 mps 729 mmHg 87%
23:00 +7°C° 0 mm 5 mps 729 mmHg 85%

26 September, Saturday

Time Temperature Precipitation Wind Pressure Humidity
00:00 +7°C° 0 mm 6 mps 730 mmHg 83%
01:00 +6°C° 0.1 mm 5 mps 730 mmHg 84%
02:00 +6°C° 0.1 mm 5 mps 730 mmHg 85%
03:00 +5°C° 0.1 mm 5 mps 731 mmHg 87%
04:00 +5°C° 0 mm 5 mps 731 mmHg 87%
05:00 +5°C° 0 mm 5 mps 732 mmHg 88%
06:00 +4°C° 0 mm 6 mps 732 mmHg 89%
07:00 +5°C° 0 mm 6 mps 733 mmHg 83%
08:00 +7°C° 0 mm 6 mps 733 mmHg 77%
09:00 +8°C° 0 mm 6 mps 733 mmHg 72%
10:00 +9°C° 0.1 mm 6 mps 733 mmHg 67%
11:00 +10°C° 0.1 mm 6 mps 733 mmHg 63%
12:00 +10°C° 0.1 mm 6 mps 733 mmHg 58%
13:00 +10°C° 0.2 mm 5 mps 732 mmHg 56%
14:00 +12°C° 0.2 mm 5 mps 732 mmHg 54%
15:00 +12°C° 0.2 mm 5 mps 732 mmHg 52%
16:00 +10°C° 0.1 mm 4 mps 732 mmHg 58%
17:00 +9°C° 0.1 mm 3 mps 731 mmHg 63%
18:00 +7°C° 0.1 mm 2 mps 731 mmHg 69%
19:00 +6°C° 0 mm 2 mps 731 mmHg 74%
20:00 +6°C° 0 mm 2 mps 731 mmHg 78%
21:00 +6°C° 0 mm 1 mps 731 mmHg 82%
22:00 +6°C° 0 mm 1 mps 730 mmHg 83%
23:00 +5°C° 0 mm 2 mps 730 mmHg 84%

27 September, Sunday

Time Temperature Precipitation Wind Pressure Humidity
00:00 +5°C° 0 mm 2 mps 730 mmHg 86%
01:00 +6°C° 0.4 mm 1 mps 729 mmHg 88%
02:00 +6°C° 0.4 mm 1 mps 729 mmHg 91%
03:00 +6°C° 0.4 mm 1 mps 729 mmHg 94%
04:00 +5°C° 0 mm 1 mps 729 mmHg 94%
05:00 +4°C° 0 mm 1 mps 729 mmHg 95%
06:00 +4°C° 0 mm 1 mps 729 mmHg 95%
07:00 +4°C° 0 mm 2 mps 730 mmHg 87%
08:00 +5°C° 0 mm 3 mps 730 mmHg 78%
09:00 +7°C° 0 mm 4 mps 730 mmHg 70%
10:00 +6°C° 0.1 mm 5 mps 730 mmHg 75%
11:00 +6°C° 0.1 mm 5 mps 730 mmHg 79%
12:00 +4°C° 0.1 mm 6 mps 730 mmHg 84%
13:00 +5°C° 0.2 mm 6 mps 729 mmHg 84%
14:00 +5°C° 0.2 mm 6 mps 729 mmHg 85%
15:00 +7°C° 0.2 mm 6 mps 729 mmHg 85%
16:00 +7°C° 0.2 mm 6 mps 729 mmHg 85%
17:00 +7°C° 0.2 mm 5 mps 729 mmHg 85%
18:00 +7°C° 0.2 mm 5 mps 730 mmHg 85%
19:00 +7°C° 0 mm 5 mps 730 mmHg 84%
20:00 +5°C° 0 mm 6 mps 730 mmHg 83%
21:00 +5°C° 0 mm 6 mps 730 mmHg 82%
22:00 +5°C° 0.1 mm 6 mps 730 mmHg 83%
23:00 +5°C° 0.1 mm 6 mps 730 mmHg 83%

28 September, Monday

Time Temperature Precipitation Wind Pressure Humidity
00:00 +4°C° 0.1 mm 6 mps 730 mmHg 83%
01:00 +4°C° 0.6 mm 6 mps 730 mmHg 85%
02:00 +4°C° 0.6 mm 6 mps 730 mmHg 87%
03:00 +4°C° 0.6 mm 6 mps 730 mmHg 89%
04:00 +4°C° 0.7 mm 6 mps 730 mmHg 88%
05:00 +4°C° 0.7 mm 7 mps 730 mmHg 87%
06:00 +3°C° 0.7 mm 7 mps 731 mmHg 85%
07:00 +4°C° 0.1 mm 7 mps 731 mmHg 82%
08:00 +4°C° 0.1 mm 7 mps 731 mmHg 78%
09:00 +5°C° 0.1 mm 7 mps 731 mmHg 74%
10:00 +7°C° 0 mm 6 mps 731 mmHg 69%
11:00 +8°C° 0 mm 6 mps 731 mmHg 64%
12:00 +8°C° 0 mm 6 mps 731 mmHg 58%
13:00 +9°C° 0 mm 5 mps 731 mmHg 59%
14:00 +10°C° 0 mm 5 mps 731 mmHg 59%
15:00 +11°C° 0 mm 4 mps 731 mmHg 59%
16:00 +11°C° 0 mm 4 mps 732 mmHg 61%
17:00 +11°C° 0 mm 4 mps 732 mmHg 63%
18:00 +11°C° 0 mm 4 mps 732 mmHg 65%
19:00 +11°C° 0 mm 4 mps 732 mmHg 68%
20:00 +11°C° 0 mm 4 mps 732 mmHg 71%
21:00 +11°C° 0 mm 4 mps 733 mmHg 74%
22:00 +11°C° 0 mm 4 mps 733 mmHg 80%
23:00 +10°C° 0 mm 4 mps 733 mmHg 86%
Show more